Vertical_Velocity
1 -2 -0 0 -0 -1 2 2 3 -0 -1 4 -0 -2 0 -1 3 -3 2 0 18 8 -2 3 2 -1 4 6 -4 -2 -1 0 -1 20 6 -4 -2 -3 1 -5 2 1 -3 -7 9 7 -10 -5 5 -5 -0 0 -2 -4
-1 2 4 1 -1 -2 -6 -6 2 -0 1 4 1 2 1 -1 2 6 3 -0 -2 9 -3 12 -9 5 0 5 -3 -2 -1 5 4 2 7 28 7 5 -5 -17 5 5 -1 1 -2 -14 -1 -0 1 7 2 6 0 1
3 4 5 1 -2 1 0 -0 -1 2 6 8 1 1 -0 -2 -1 3 -0 5 -6 -9 -10 -8 11 1 2 -2 9 0 -3 -1 4 7 6 4 -1 16 16 -11 36 8 7 13 18 -10 2 1 0 2 5 3 2 0
3 5 -2 -1 -4 2 3 3 1 3 2 7 7 -1 -1 -2 0 2 3 5 4 -4 -10 -12 -5 4 -3 1 0 -0 5 -5 -4 3 3 -1 -0 0 -2 10 10 10 11 5 -2 4 6 4 1 0 5 3 4 3
2 -0 2 -1 -0 1 5 5 -2 -1 3 15 2 0 -0 0 3 3 -3 1 0 1 -3 -20 1 9 1 0 -0 3 3 4 3 -2 -0 -1 6 3 1 4 5 -4 4 10 7 4 4 6 3 2 -1 2 1 1
3 3 2 -1 -2 -3 -2 2 2 -1 3 5 0 1 -0 -1 -0 -1 -5 2 2 21 17 -10 -3 0 6 15 5 4 3 1 1 10 -4 27 1 4 4 3 3 -4 0 3 1 2 19 3 1 8 4 -5 2 5
-3 -1 0 1 1 -2 -2 -1 0 -1 -1 -1 -0 -0 -0 -1 -2 -1 -3 2 3 0 -3 -6 1 2 -2 -1 2 -1 -2 42 28 17 18 4 3 11 -2 -1 3 9 2 -2 4 -1 4 13 3 -4 20 5 -3 3
-1 -1 0 1 -0 -2 -2 0 5 -1 0 -1 -1 -2 -1 -1 -2 -2 0 0 -0 0 -0 -1 5 -7 0 -0 -4 -7 26 2 6 7 5 8 8 7 -1 4 13 7 3 6 7 3 5 13 7 4 2 6 2 4
-1 1 1 -0 -3 -5 -3 2 2 -1 -2 0 -1 0 0 -1 0 -1 0 1 -0 0 -1 2 -1 -3 -2 -2 -2 8 7 -9 1 3 -2 6 4 -3 13 9 5 10 1 -2 5 5 8 2 1 4 1 -0 4 4
2 0 0 -2 -0 0 -1 8 1 0 -0 0 -1 -2 -1 -0 -0 -0 11 0 -1 23 0 0 0 -1 -1 -1 4 4 12 2 -8 -2 -8 -4 6 17 8 6 6 3 5 4 8 4 6 4 3 5 1 4 1 -1
-0 2 1 -2 -3 -2 -3 -1 -2 -2 -2 -2 -0 -0 -1 0 1 -0 0 2 2 1 -1 -2 -2 -2 0 -1 4 5 8 4 -5 -4 -8 1 4 7 7 4 4 5 4 6 6 4 2 3 2 0 1 1 2 -1
-0 -1 -1 1 -0 -1 -2 -2 -1 -1 -1 -0 -1 0 -1 -3 -0 -1 -4 -0 -1 -1 2 -1 -3 1 1 1 3 4 2 4 2 1 -2 2 8 7 5 4 4 4 4 3 2 2 2 1 0 -2 -2 -1 -0 1
-1 -0 -1 -0 0 -0 -1 -2 -2 -2 -1 1 -2 -0 -1 1 -9 -8 -4 -2 -2 2 1 -1 2 3 1 2 2 1 -1 4 -0 -3 -1 5 5 5 3 3 1 -1 -1 -2 -2 -2 -3 -3 -3 -1 -1 -0 -1 -1
-1 -2 -1 -0 0 0 0 -1 -1 -2 -1 -5 -3 -4 -5 -0 -0 3 1 0 0 -1 2 4 0 -1 1 1 -0 -1 -1 2 -2 -3 1 3 3 2 2 0 1 1 1 0 -0 -0 -0 -0 -1 -0 -0 0 -1 -1
-3 -4 -3 4 0 -2 -1 -0 -5 -5 -2 -6 -1 -5 -3 2 4 1 1 0 0 1 0 2 -1 -0 1 -2 -1 4 -1 -1 2 1 2 2 1 1 1 2 1 0 0 -0 -0 -1 -1 -1 -1 -1 -1 -1 -1 -1
0 1 2 -1 -1 -2 -3 -3 -0 3 -13 -9 -4 2 3 8 6 7 5 5 -0 -0 1 0 -0 -1 -4 -2 -2 -1 -0 1 0 0 1 0 -0 -1 -1 -1 -1 -1 -1 -1 -1 -1 -1 -1 -1 -1 -1 -1 -2 -1
-1 -5 -2 -3 -3 -4 -5 3 -0 -13 -9 -4 3 1 1 3 -1 -2 -1 -2 -2 -0 2 0 -3 -1 1 -4 -2 -2 -1 1 0 1 0 0 -1 -1 -1 -1 -1 -1 -1 -1 -1 -1 -1 -1 -1 -1 -1 -2 -2 -2
-2 -0 -1 -2 -2 1 3 -1 -12 -5 -4 1 -1 0 1 1 3 1 3 3 4 1 2 -12 1 -2 -3 -3 -0 1 2 1 -1 1 0 1 0 -0 -0 -0 -1 -1 -1 -0 0 0 0 0 -0 -0 -0 -0 -1 -1
-1 -1 -1 -1 0 3 -5 -6 -6 -5 -1 -2 -2 2 1 -4 -5 -4 -2 -2 -2 -1 -1 -3 -3 -3 -1 0 1 0 -0 0 1 1 0 -0 -1 0 0 -0 -1 -1 -0 0 0 -0 0 1 0 0 0 1 -0 -1
-2 -2 -2 -1 -2 2 -5 -2 -4 -2 0 -2 -0 3 -1 -4 -0 0 3 4 9 -7 -10 -8 -4 -1 -0 -0 -0 0 -0 0 0 -1 -2 -0 -0 -0 -0 -0 -0 -0 -0 -1 -1 -0 -1 -2 -1 -1 -1 0 1 -1
-2 -1 1 -1 1 -2 -5 -2 -1 -1 -1 -1 0 1 -2 0 4 3 -0 0 1 -17 -9 -2 -1 -1 -1 -1 -1 -0 -0 -1 0 1 1 1 0 0 -0 -1 -1 0 -0 -0 -1 -1 -1 -1 -0 -1 -1 -1 -1 -1
-1 -2 -2 0 -1 -5 -2 -1 -2 -1 -1 -0 1 1 1 1 2 1 -0 1 -10 -3 -0 1 1 1 0 0 1 1 1 0 -1 -1 -1 -1 -2 -1 1 1 1 -0 0 0 0 0 0 0 1 0 -0 -0 -1 -0
-0 -1 1 -2 -2 -2 -3 -1 -1 -1 -1 0 1 -1 -0 0 -0 1 -1 -2 -1 -1 -0 -0 0 1 1 1 1 1 0 0 0 -0 -0 -0 1 0 -0 -0 -0 0 -0 -1 -2 -1 -0 -0 -1 0 0 -1 -1 -1
-2 -1 -2 -3 -3 -2 -1 -1 -1 -1 -0 -0 -0 0 -1 -0 0 -1 -1 -1 -2 -3 -1 1 1 -1 -3 -2 -1 -0 -0 -0 -0 2 1 -0 -1 -2 -0 1 1 -1 -2 -2 -1 -2 -2 -2 -2 -1 -1 1 0 1
-3 -5 -3 -3 -2 -1 -1 -1 -1 -1 0 0 0 0 1 1 -0 -0 -1 -2 -1 1 0 -1 -1 1 1 -1 -1 -1 1 1 1 -0 -0 1 0 -1 -2 -3 -1 1 1 2 1 1 1 0 -1 -2 -0 1 1 1
-4 -4 -3 -2 -2 -2 -2 -2 -2 -2 -3 -3 -2 -2 -2 -1 -1 -1 -0 1 1 1 2 3 2 2 1 -1 0 1 0 -1 -0 1 -0 1 1 2 3 4 3 -2 -1 -1 0 2 0 -1 0 1 -0 -1 -1 -1
-6 -3 -2 -1 -1 -2 -1 -0 0 -1 -1 -1 1 1 0 -0 0 0 1 0 -0 -1 -0 -1 -2 -2 -2 0 1 -0 -1 0 1 3 2 0 1 2 2 2 2 1 1 2 -0 -1 -1 -0 0 1 1 -1 -0 1
-2 -1 -2 -2 -0 1 1 2 1 1 2 2 2 0 0 -0 -1 0 1 1 -0 -0 -1 -5 -4 -3 -2 -2 -4 -1 2 0 -1 -1 -0 1 1 3 3 3 1 1 0 -0 1 -1 -2 -2 -1 -0 0 1 1 0
-1 -1 -1 -1 -1 -2 -2 -1 0 2 2 2 1 2 2 2 2 2 1 1 1 0 0 1 3 3 1 0 -5 -1 -1 0 1 1 1 0 0 -4 -1 1 1 0 -0 0 -3 -3 -2 -2 -1 -1 -0 -0 0 0
-1 0 1 1 1 1 1 2 3 3 3 3 3 3 2 2 4 4 2 2 0 0 -0 -2 -3 -1 -2 -1 3 -3 -0 -0 -0 -1 2 2 2 3 3 2 2 2 -0 1 4 2 -2 -2 -2 -4 -4 -2 0 0
1 0 1 1 1 3 3 3 3 3 3 4 5 6 6 8 4 3 2 0 -2 -2 1 2 2 -0 1 1 2 4 3 1 0 -1 0 1 2 3 2 3 1 1 1 1 1 1 1 -0 -1 0 -1 -0 -1 -0
0 -1 -0 -0 1 2 2 3 3 2 1 0 2 5 6 4 1 2 0 -1 0 2 2 0 1 2 -0 -1 -2 -2 -3 -1 1 2 2 3 3 3 3 3 3 1 0 -0 -1 -2 -2 -2 -1 -0 -0 -1 0 0
1 1 1 -1 -0 -2 -0 1 -1 0 0 0 -0 1 1 1 -1 -2 -1 -3 -2 -1 -1 -0 -0 -1 -1 -1 -1 -1 -2 -2 -2 0 0 -1 -2 -3 -2 0 1 -1 -1 -1 -0 -0 -1 -0 -1 -1 -1 0 0 -0
Height
3012 3007 3005 3002 2998 2994 2990 2987 2984 2982 2981 2979 2979 2978 2976 2974 2972 2969 2969 2968 2967 2963 2964 2962 2961 2960 2961 2960 2959 2959 2960 2960 2960 2958 2955 2953 2953 2957 2960 2962 2962 2965 2966 2966 2969 2969 2965 2968 2969 2972 2972 2972 2975 2978
3006 3003 3000 2996 2993 2989 2984 2980 2977 2974 2973 2973 2973 2972 2971 2969 2967 2964 2963 2961 2960 2957 2957 2955 2956 2956 2955 2955 2954 2953 2955 2955 2954 2950 2946 2942 2946 2946 2948 2949 2956 2957 2957 2957 2958 2955 2956 2959 2962 2964 2966 2968 2970 2973
3001 2998 2995 2992 2988 2983 2978 2972 2967 2967 2967 2967 2967 2967 2966 2964 2962 2960 2958 2957 2954 2952 2952 2952 2951 2950 2949 2948 2948 2947 2948 2949 2948 2947 2944 2944 2941 2938 2940 2940 2946 2944 2947 2947 2949 2948 2950 2953 2956 2958 2960 2963 2965 2968
2997 2994 2991 2988 2983 2978 2972 2966 2960 2960 2961 2962 2962 2962 2961 2960 2957 2955 2953 2952 2950 2948 2944 2946 2945 2945 2943 2942 2942 2941 2941 2941 2941 2941 2940 2939 2939 2938 2936 2936 2935 2933 2935 2935 2938 2941 2944 2946 2948 2951 2954 2957 2960 2963
2993 2990 2987 2983 2979 2975 2969 2964 2959 2958 2958 2958 2958 2958 2957 2955 2953 2950 2948 2946 2945 2945 2941 2940 2939 2940 2937 2936 2936 2936 2935 2934 2935 2935 2936 2936 2936 2936 2932 2932 2931 2931 2929 2930 2929 2932 2935 2939 2941 2944 2947 2950 2954 2957
2990 2987 2983 2979 2975 2972 2967 2963 2960 2958 2956 2955 2955 2954 2953 2950 2948 2945 2943 2941 2940 2941 2938 2936 2935 2933 2933 2933 2933 2931 2929 2929 2929 2929 2931 2931 2930 2933 2930 2928 2930 2928 2926 2927 2928 2927 2928 2930 2933 2937 2939 2943 2947 2949
2986 2983 2979 2975 2971 2968 2965 2961 2958 2956 2953 2953 2952 2951 2949 2947 2944 2942 2941 2940 2937 2937 2936 2933 2932 2931 2931 2930 2929 2927 2925 2923 2922 2923 2925 2926 2927 2928 2927 2929 2931 2926 2924 2925 2926 2926 2928 2929 2928 2932 2932 2936 2940 2942
2982 2979 2975 2972 2968 2964 2961 2957 2955 2953 2952 2951 2949 2947 2945 2942 2940 2939 2937 2936 2936 2935 2934 2932 2931 2931 2929 2927 2926 2924 2921 2919 2917 2917 2918 2919 2922 2923 2929 2932 2930 2928 2926 2927 2926 2927 2929 2927 2927 2931 2933 2935 2937 2941
2979 2976 2972 2968 2963 2957 2952 2951 2951 2950 2949 2948 2946 2943 2941 2939 2937 2936 2934 2933 2933 2935 2933 2933 2930 2929 2927 2925 2924 2924 2920 2919 2921 2919 2918 2921 2921 2927 2933 2932 2931 2929 2930 2931 2931 2931 2930 2929 2931 2933 2933 2936 2939 2941
2977 2974 2970 2964 2958 2954 2952 2950 2950 2948 2947 2944 2942 2940 2938 2937 2935 2934 2933 2933 2933 2933 2933 2932 2930 2927 2926 2923 2922 2922 2922 2923 2926 2929 2928 2928 2932 2937 2936 2935 2933 2933 2933 2934 2934 2933 2933 2933 2934 2934 2937 2939 2940 2942
2976 2972 2968 2964 2959 2955 2952 2951 2949 2947 2944 2942 2940 2938 2938 2936 2935 2935 2934 2934 2934 2934 2934 2932 2929 2926 2925 2923 2921 2922 2923 2927 2930 2935 2934 2937 2939 2940 2939 2938 2937 2936 2935 2935 2934 2934 2934 2935 2936 2936 2938 2938 2939 2940
2974 2971 2968 2965 2961 2958 2954 2951 2947 2944 2942 2940 2939 2939 2939 2938 2938 2938 2937 2938 2937 2936 2934 2932 2930 2927 2925 2923 2922 2923 2924 2928 2933 2936 2938 2941 2944 2942 2941 2940 2938 2937 2936 2935 2934 2934 2934 2935 2935 2936 2936 2937 2938 2939
2977 2973 2970 2967 2963 2959 2955 2951 2948 2944 2942 2941 2940 2940 2941 2943 2942 2942 2942 2941 2938 2936 2934 2932 2930 2928 2926 2925 2925 2925 2928 2932 2936 2938 2943 2946 2944 2943 2941 2940 2938 2937 2936 2935 2934 2934 2934 2934 2934 2935 2935 2935 2935 2934
2980 2976 2972 2968 2964 2959 2955 2952 2949 2946 2945 2944 2943 2944 2946 2948 2948 2946 2944 2941 2939 2936 2935 2933 2931 2929 2928 2927 2927 2929 2933 2936 2939 2943 2946 2945 2944 2942 2941 2939 2938 2937 2936 2935 2934 2933 2933 2932 2931 2931 2930 2930 2929 2929
2982 2977 2973 2970 2964 2960 2956 2953 2950 2948 2947 2946 2948 2950 2951 2951 2949 2946 2942 2938 2936 2935 2934 2933 2933 2932 2930 2930 2932 2934 2936 2940 2944 2946 2946 2944 2942 2941 2940 2938 2937 2935 2934 2933 2931 2930 2929 2928 2927 2926 2925 2924 2924 2923
2984 2980 2976 2971 2967 2963 2959 2956 2954 2952 2949 2951 2953 2955 2953 2952 2950 2947 2943 2938 2936 2935 2935 2934 2933 2934 2934 2935 2937 2939 2942 2945 2947 2945 2944 2943 2941 2940 2938 2937 2935 2933 2932 2930 2928 2927 2925 2924 2923 2921 2920 2919 2918 2917
2986 2982 2978 2974 2970 2967 2964 2962 2958 2954 2955 2957 2958 2957 2956 2954 2950 2947 2945 2941 2938 2936 2935 2935 2936 2938 2941 2941 2943 2945 2946 2946 2945 2944 2943 2941 2939 2937 2935 2933 2931 2929 2927 2925 2924 2922 2920 2919 2917 2916 2914 2913 2912 2911
2987 2985 2981 2978 2975 2972 2969 2965 2960 2961 2961 2962 2961 2960 2959 2957 2955 2952 2950 2947 2946 2941 2939 2937 2941 2941 2944 2947 2947 2947 2946 2945 2943 2942 2940 2939 2937 2934 2932 2930 2928 2926 2924 2922 2920 2918 2917 2915 2913 2911 2910 2909 2907 2906
2989 2986 2983 2980 2977 2975 2971 2969 2967 2966 2966 2965 2964 2963 2963 2961 2959 2957 2955 2952 2949 2946 2943 2942 2945 2946 2948 2948 2948 2947 2946 2944 2943 2941 2939 2937 2935 2933 2930 2928 2926 2924 2922 2920 2918 2916 2914 2912 2911 2909 2907 2906 2904 2903
2990 2987 2984 2981 2979 2976 2973 2973 2971 2970 2970 2969 2968 2967 2966 2965 2964 2962 2960 2958 2955 2950 2947 2948 2949 2950 2950 2949 2948 2946 2945 2943 2941 2939 2938 2936 2934 2932 2930 2928 2925 2923 2920 2918 2916 2914 2911 2909 2907 2906 2904 2903 2901 2900
2991 2988 2985 2983 2980 2977 2976 2975 2974 2974 2973 2972 2971 2970 2969 2968 2967 2965 2963 2960 2956 2951 2951 2953 2953 2952 2950 2949 2947 2945 2944 2942 2941 2940 2938 2936 2934 2932 2929 2926 2924 2922 2919 2917 2914 2912 2910 2908 2906 2904 2902 2900 2898 2896
2990 2987 2985 2983 2981 2979 2978 2978 2977 2976 2976 2974 2973 2972 2971 2969 2968 2966 2964 2961 2957 2957 2956 2955 2954 2952 2950 2948 2946 2945 2943 2942 2940 2939 2937 2935 2933 2931 2929 2926 2923 2920 2918 2915 2913 2910 2908 2906 2903 2901 2899 2897 2895 2893
2989 2987 2985 2983 2982 2982 2983 2980 2979 2977 2976 2975 2974 2973 2971 2969 2968 2967 2965 2963 2961 2959 2958 2955 2953 2951 2949 2947 2946 2944 2942 2941 2939 2938 2936 2934 2932 2930 2928 2925 2923 2920 2917 2914 2911 2908 2906 2903 2901 2899 2896 2894 2892 2890
2988 2987 2986 2985 2985 2984 2983 2981 2980 2978 2977 2976 2974 2973 2971 2970 2969 2967 2966 2964 2962 2960 2958 2955 2953 2950 2948 2946 2944 2943 2941 2939 2938 2936 2934 2932 2930 2928 2926 2924 2921 2918 2915 2912 2909 2906 2903 2901 2899 2896 2894 2892 2890 2888
2991 2990 2990 2987 2986 2985 2983 2982 2981 2979 2977 2976 2974 2973 2971 2969 2968 2968 2967 2965 2963 2961 2958 2954 2952 2950 2948 2946 2943 2941 2939 2938 2935 2933 2931 2929 2927 2925 2923 2920 2918 2916 2913 2911 2908 2905 2902 2898 2896 2894 2892 2890 2888 2886
2990 2991 2991 2988 2987 2985 2984 2982 2980 2978 2976 2975 2974 2972 2970 2969 2969 2968 2967 2965 2963 2961 2958 2956 2953 2950 2947 2943 2941 2939 2936 2933 2931 2929 2926 2924 2923 2921 2919 2917 2915 2913 2911 2908 2906 2903 2900 2897 2894 2891 2889 2887 2886 2884
2994 2993 2991 2989 2988 2986 2984 2982 2979 2978 2976 2975 2973 2971 2970 2969 2968 2968 2966 2964 2962 2960 2957 2953 2949 2945 2942 2939 2936 2933 2930 2927 2924 2922 2919 2917 2915 2914 2913 2911 2910 2908 2906 2904 2902 2899 2897 2894 2891 2889 2886 2884 2883 2881
2996 2994 2992 2990 2988 2986 2984 2981 2979 2978 2976 2975 2973 2971 2970 2969 2968 2966 2965 2963 2961 2958 2954 2950 2946 2942 2938 2934 2930 2928 2925 2920 2917 2913 2910 2908 2906 2905 2904 2903 2902 2901 2899 2898 2896 2895 2892 2890 2888 2886 2883 2881 2879 2878
2998 2996 2994 2991 2988 2986 2984 2982 2980 2978 2976 2974 2972 2970 2969 2967 2966 2965 2963 2961 2959 2956 2953 2949 2945 2941 2936 2931 2926 2923 2920 2916 2913 2908 2904 2902 2900 2898 2897 2896 2895 2895 2893 2892 2891 2889 2888 2885 2884 2881 2879 2877 2876 2875
2999 2996 2993 2990 2988 2985 2983 2980 2977 2975 2972 2970 2969 2968 2966 2965 2964 2962 2960 2959 2957 2953 2949 2944 2940 2936 2932 2929 2925 2920 2916 2913 2909 2906 2902 2899 2897 2895 2893 2892 2891 2890 2888 2887 2886 2884 2883 2880 2878 2875 2873 2872 2871 2870
2999 2996 2993 2989 2986 2983 2979 2976 2973 2970 2967 2965 2963 2964 2963 2962 2961 2960 2959 2957 2953 2949 2945 2941 2937 2932 2929 2926 2922 2919 2915 2911 2907 2904 2900 2897 2895 2892 2890 2889 2887 2885 2883 2882 2881 2879 2877 2875 2873 2870 2868 2866 2865 2865
2998 2994 2991 2987 2984 2980 2976 2973 2969 2966 2964 2963 2962 2961 2960 2960 2960 2960 2957 2953 2949 2945 2941 2936 2933 2930 2926 2922 2918 2915 2911 2908 2905 2902 2898 2896 2893 2891 2889 2886 2884 2882 2880 2878 2876 2873 2871 2869 2867 2864 2863 2861 2861 2861
2997 2993 2989 2985 2981 2978 2974 2971 2969 2967 2965 2964 2963 2961 2961 2961 2960 2957 2953 2949 2945 2941 2937 2933 2929 2926 2923 2920 2917 2913 2910 2907 2903 2900 2897 2894 2892 2889 2887 2885 2882 2879 2876 2873 2871 2868 2866 2864 2862 2860 2858 2857 2857 2858